STARLINK-3077, 49133

Orbit data source: Space-Track

STARLINK-3077, 49133 is a payload satellite owned by SpaceX/Seattle (US) in LEO that was launched on Tue, 14 Sep 2021 UTC via an FALCON 9 launch vehicle from the Air Force Western Test Range (AFWTR). Payload-class satellites include a variety of spacecraft equipped with specific instruments for various scientific and technological missions. These include communications satellites like Starlink; space stations such as the ISS; scientific satellites like the Hubble; Earth observation satellites from companies like Planet Labs, Umbra, and HawkEye 360; GPS; miniature CubeSats for education and research; and military/defense satellites.

Loading next visibility...
Identifier
49133, 2021-082D
Orbit
LEO
Country
Flag of USUS
Related business
Manufacturer
SpaceX/Seattle
Mission
Operational Commercial Communications
Bus & Motor
STARLINK, Unknown motor
Mass
297 kg wet, ~275 kg dry
Launch date (UTC)
2021-09-14 (4 years ago)
Launch vehicle
FALCON 9
Launch site
Air Force Western Test Range (AFWTR)
Object type
Payload
Rocket body
Debris
Shape & HBR
Box + 1 Pan, 10.1 m
Radar Cross Section
13.562 m², Large (>1 m²)

Expand to show TLE details & history
Last TLE update: 15 hours ago

TLE from 15 hours ago
0 STARLINK-3077
1 49133U 21082D   25286.44980713  .00000283  00000-0  31516-4 0  9995
2 49133  69.9983 305.6991 0003096 269.9173  90.1631 14.98333872223920
Epoch: 2025-10-13T10:47Z
TLE epoch observation values (Epoch: 2025-10-13T10:47:43.336Z)
Latitude
-0.00002°
Longitude
121.51611°
Altitude
574.474 km
Speed
7.574 km/s
True Right ascension
20h 22m 47s
True Declination
0° 00' 00"
Sunlit
Object was in daylight at epoch
Visualization orbit readout
Latitude
Unknown
Longitude
Unknown
Altitude
Unknown
Speed
Unknown
Apparent Right ascension
Unknown
Apparent Declination
Unknown
Sunlit
N/A
Visualization observer readout
Local Sidereal Time
19:56:54
Azimuth
Unknown
Elevation
Unknown
Doppler factor
Unknown
Orbital elements
Apogee altitude
572.143 km
Perigee altitude
567.841 km
Semi-major axis
6,948.129 km
Eccentricity
0.00031
Inclination
69.9983°
RAAN
305.6991°
Arg. of periapsis
269.9173°
True anomaly
90.19858°
Mean anomaly
90.1631°
Eccentric anomaly
90.18084°
Mean motion
3.7475 °/min
Orbital period
96.06 mins
BSTAR
0.000031516
Loading maneuver chart data...
Computing Atmospheric mass density...
Loading historical data...
Loading historical data...
Loading historical data...
Loading historical data...
Loading historical data...
Loading historical data...
Loading historical data...

Documentation

Showing up to 5 results
|